Location: Eppenbrunn
(49.1158°N, 7.5601°E)
Time: 06:48:00
(UTC+00:00)

RESURS DK-1 - Pass Details

Date: 09 April 2020
Orbit: 557 x 561 km, 69.9° (Epoch: 02 June)

Event Time Altitude Azimuth Distance (km) Brightness Sun altitude
Rises 20:43:51 0° 329° (NNW) 2,761 7.2 -22.2°
Reaches altitude 10° 20:46:04 10° 329° (NNW) 1,860 6.1 -22.5°
Maximum altitude 20:50:14 84° 241° (WSW) 571 2.3 -22.9°
Enters shadow 20:50:16 83° 224° (SW) 571 2.2 -22.9°
